Port Angeles, WA
on Saturday, February 16, 2013

Saturday
Previous Day Next Day
Daily Summary
 ActualAverageRecord
Temperature
Mean Temperature °F °F  
Max Temperature 50°F 48°F 63°F (2004)
Min Temperature 37°F 35°F 17°F (1956)
Degree Days
Heating Degree Days 22    
Moisture
Dew Point 38°F   
Average Humidity 82    
Maximum Humidity 97    
Minimum Humidity 57    
Precipitation
Precipitation 0.00 in in in ()
Wind
Wind Speed 6 mph   
Max Wind Speed 21 mph   
Max Gust Speed 26 mph   
Visibility 10 miles   
Events Rain   
Averages and records for this station are not official NWS values.
Key: T is trace of precipitation, MM is missing value
Source: NWS Daily Summary
Seasonal Weather Averages
Time(PST)TemperatureDew PointHumidity Pressure Visibility Wind DirectionWind SpeedGust SpeedPrecipitationEvents Conditions
12:21 AM 37.0°F 35.1°F 93% 30.17 in 3.0 miles Calm Calm - N/A   Clear
12:53 AM 37.0°F 35.1°F 93% 30.18 in 7.0 miles SSW 3.5 mph - N/A   Clear
1:15 AM 37.9°F 37.0°F 97% 30.16 in 10.0 miles Calm Calm - N/A   Scattered Clouds
1:26 AM 37.0°F 36.0°F 96% 30.16 in 10.0 miles Calm Calm - N/A   Mostly Cloudy
1:53 AM 37.0°F 36.0°F 96% 30.16 in 8.0 miles West 3.5 mph - N/A   Mostly Cloudy
2:32 AM 39.2°F 37.4°F 93% 30.15 in 10.0 miles Calm Calm - N/A   Overcast
2:40 AM 39.9°F 37.9°F 93% 30.15 in 10.0 miles Calm Calm - N/A   Mostly Cloudy
2:53 AM 39.0°F 37.9°F 96% 30.16 in 10.0 miles Calm Calm - N/A   Mostly Cloudy
3:53 AM 39.9°F 39.0°F 97% 30.15 in 10.0 miles West 3.5 mph - N/A   Overcast
4:31 AM 43.0°F 39.9°F 89% 30.13 in 10.0 miles West 3.5 mph - 0.00 in Rain Light Rain
4:53 AM 43.0°F 41.0°F 93% 30.14 in 10.0 miles Calm Calm - 0.00 in   Overcast
5:16 AM 44.1°F 41.0°F 89% 30.13 in 10.0 miles West 6.9 mph - N/A   Overcast
5:50 AM 44.6°F 42.8°F 93% 30.12 in 10.0 miles West 6.9 mph - N/A   Overcast
5:53 AM 44.1°F 42.1°F 93% 30.13 in 10.0 miles West 10.4 mph - N/A   Overcast
6:33 AM 45.0°F 42.1°F 90% 30.12 in 10.0 miles West 11.5 mph - N/A   Overcast
6:53 AM 45.0°F 42.1°F 90% 30.12 in 10.0 miles West 13.8 mph - N/A   Overcast
7:19 AM 44.1°F 41.0°F 89% 30.12 in 10.0 miles West 11.5 mph - N/A   Mostly Cloudy
7:53 AM 45.0°F 41.0°F 86% 30.14 in 10.0 miles West 17.3 mph - N/A   Scattered Clouds
8:53 AM 46.0°F 41.0°F 83% 30.15 in 10.0 miles West 8.1 mph - 0.00 in   Overcast
9:17 AM 46.0°F 42.1°F 86% 30.15 in 10.0 miles WNW 10.4 mph - N/A   Overcast
9:27 AM 46.0°F 42.1°F 86% 30.16 in 10.0 miles WNW 6.9 mph - 0.00 in Rain Light Rain
9:35 AM 46.0°F 42.1°F 86% 30.16 in 10.0 miles WNW 9.2 mph - 0.00 in Rain Light Rain
9:53 AM 46.0°F 41.0°F 83% 30.15 in 10.0 miles WSW 12.7 mph - 0.00 in   Overcast
10:53 AM 50.0°F 41.0°F 71% 30.15 in 10.0 miles Variable 6.9 mph - N/A   Mostly Cloudy
11:13 AM 48.0°F 39.9°F 74% 30.15 in 10.0 miles NW 8.1 mph - N/A   Mostly Cloudy
11:21 AM 48.0°F 39.9°F 74% 30.16 in 10.0 miles NW 9.2 mph - N/A   Mostly Cloudy
11:53 AM 50.0°F 39.0°F 66% 30.16 in 10.0 miles WNW 9.2 mph - N/A   Mostly Cloudy
12:53 PM 50.0°F 37.0°F 61% 30.15 in 10.0 miles WNW 16.1 mph 25.3 mph N/A   Scattered Clouds
1:53 PM 50.0°F 35.1°F 57% 30.13 in 10.0 miles WNW 17.3 mph 26.5 mph N/A   Clear
2:53 PM 46.9°F 37.9°F 71% 30.15 in 10.0 miles NW 20.7 mph 26.5 mph 0.00 in Rain Light Rain
3:53 PM 46.9°F 37.0°F 68% 30.16 in 10.0 miles WNW 17.3 mph 25.3 mph 0.00 in Rain Light Rain
4:53 PM 44.1°F 37.9°F 79% 30.15 in 10.0 miles WNW 12.7 mph 25.3 mph 0.00 in   Overcast
5:14 PM 43.0°F 36.0°F 76% 30.14 in 10.0 miles West 17.3 mph 26.5 mph 0.00 in Rain Light Rain
5:23 PM 43.0°F 36.0°F 76% 30.14 in 10.0 miles WNW 12.7 mph 23.0 mph 0.00 in   Scattered Clouds
5:53 PM 44.1°F 36.0°F 73% 30.17 in 10.0 miles WNW 15.0 mph - 0.00 in Rain Light Rain
6:53 PM 42.1°F 36.0°F 79% 30.17 in 10.0 miles West 13.8 mph - 0.00 in   Mostly Cloudy
7:53 PM 44.1°F 35.1°F 71% 30.18 in 10.0 miles WNW 15.0 mph 21.9 mph 0.00 in Rain Light Rain
8:53 PM 44.1°F 35.1°F 71% 30.18 in 10.0 miles West 13.8 mph - 0.00 in   Overcast
9:53 PM 44.1°F 34.0°F 68% 30.18 in 10.0 miles West 11.5 mph - N/A   Overcast
10:53 PM 44.1°F 34.0°F 68% 30.17 in 10.0 miles West 17.3 mph 24.2 mph 0.00 in   Partly Cloudy
11:53 PM 43.0°F 33.1°F 68% 30.18 in 10.0 miles WNW 15.0 mph - N/A   Clear
Moon Phase
Feb. 16 Feb. 17 Feb. 25 Mar. 04 Mar. 11
Sunrise:07:18 AM (PST) Moon Rise:10:00 AM (PST)2/16
Sunset:05:38 PM (PST) Moon Set:12:16 AM (PST)2/16

Copyright © 2014 The Weather Underground, Inc.